This is the latest recevied weather packets stored in our database for station/object K9MWD. If no packets are shown the sender has not sent any weather packets the latest 10 day(s).
| Time | Temp. | Humidity | Pressure | Rain* | Wind** | Luminosity | Snow |
|---|---|---|---|---|---|---|---|
| 1777467961 | 17.78° C | 77% | 1014.2 hPa | 0 mm | - | 34 W/m² | - |
| 1777467656 | 17.78° C | 78% | 1014.2 hPa | 0 mm | - | 28 W/m² | - |
| 1777467352 | 17.78° C | 79% | 1014.3 hPa | 0 mm | - | 25 W/m² | - |
| 1777467048 | 17.78° C | 79% | 1014.2 hPa | 0 mm | - | 27 W/m² | - |
| 1777466746 | 17.78° C | 79% | 1014.2 hPa | 0 mm | - | 20 W/m² | - |
| 1777466443 | 17.78° C | 80% | 1014.3 hPa | 0 mm | - | 14 W/m² | - |
| 1777466139 | 17.78° C | 80% | 1014.2 hPa | 0 mm | - | 12 W/m² | - |
| 1777465836 | 17.78° C | 81% | 1013.8 hPa | 0 mm | - | 7 W/m² | - |
| 1777465531 | 17.78° C | 82% | 1013.9 hPa | 0 mm | - | 5 W/m² | - |
| 1777465226 | 18.33° C | 82% | 1013.9 hPa | 0 mm | - | 6 W/m² | - |
| 1777464921 | 18.33° C | 82% | 1013.5 hPa | 0 mm | - | 7 W/m² | - |
| 1777464616 | 18.33° C | 81% | 1013.2 hPa | 0 mm | - | 6 W/m² | - |
| 1777464313 | 18.33° C | 81% | 1013.3 hPa | 0 mm | - | 5 W/m² | - |
| 1777464009 | 18.33° C | 81% | 1013.3 hPa | 0 mm | - | 4 W/m² | - |
| 1777463703 | 18.89° C | 81% | 1013.3 hPa | 0 mm | - | 2 W/m² | - |
| 1777463398 | 18.89° C | 82% | 1013.3 hPa | 0 mm | - | 1 W/m² | - |
| 1777463095 | 18.89° C | 82% | 1013.2 hPa | 0 mm | - | 1 W/m² | - |
| 1777462790 | 18.89° C | 82% | 1013.2 hPa | 0 mm | - | 0 W/m² | - |
| 1777462485 | 18.89° C | 81% | 1013 hPa | 0 mm | - | 0 W/m² | - |
| 1777462183 | 18.89° C | 81% | 1013 hPa | 0 mm | - | 0 W/m² | - |
| 1777461879 | 18.89° C | 81% | 1013 hPa | 0 mm | - | 0 W/m² | - |
| 1777461576 | 18.89° C | 81% | 1013 hPa | 0 mm | - | 0 W/m² | - |
| 1777461271 | 18.89° C | 81% | 1012.5 hPa | 0 mm | - | 0 W/m² | - |
| 1777460967 | 18.89° C | 81% | 1013.2 hPa | 0 mm | - | 0 W/m² | - |
| 1777460663 | 19.44° C | 81% | 1013.3 hPa | 0 mm | - | 0 W/m² | - |
* Rain latest hour (hover to see other rain measurements)
** Current wind speed in m/s (hover to see current wind gust speed)